User: anonymous   Login
Location: Bishausen
(51.6334°N, 9.9631°E)
Time: 08:47:15
(UTC+00:00)
Language:

Cosmos 1741 Rocket - Orbit

View from above orbital plane
View from above orbital plane
View from above satellite
View from above satellite

Ground track
Ground track

The orbit data is extracted from the following two-line orbital elements,

1 16682U 86030B   24197.22152420  .00000469  00000-0  16805-3 0  9993
2 16682  74.0249 157.6485 0015654 231.8274 230.0517 14.36641296  2243
Epoch (UTC): 15 July 2024 05:18:59
Eccentricity: 0.0015654
inclination: 74.0249°
perigee height: 758 km
apogee height: 781 km
right ascension of ascending node: 157.6485°
argument of perigee: 231.8274°
revolutions per day: 14.36641296
mean anomaly at epoch: 230.0517°
orbit number at epoch: 224

The dashed part of the orbit path shows where the satellite is in the earth's shadow,  

DLR